Weather History for Portage Southport, MB

Change the Weather History Date:

Thursday, September 5, 2013

  Actual Average Record
Temperature  
Mean Temperature 68 °F -  
Max Temperature 86 °F 61 °F 86 °F (2013)
Min Temperature 50 °F 43 °F 46 °F (2014)
Cooling Degree Days 3    
Growing Degree Days 18 (Base 50)    
Moisture  
Dew Point 56 °F    
Average Humidity 64    
Maximum Humidity 83    
Minimum Humidity 41    
Precipitation  
Precipitation 0.00 in - - ()
Sea Level Pressure  
Sea Level Pressure 30.07 in    
Wind  
Wind Speed 8 mph ()    
Max Wind Speed 18 mph    
Max Gust Speed 24 mph    
Visibility 15.0 miles    
Events      
Averages and records for this station are not official NWS values.
T = Trace of Precipitation, MM = Missing Value Source: Averaged Metar Reports

Daily Weather History Graph

Daily Weather History Graph

Search for Another Location

Airport:

Trip Planner

Search our weather history database for the weather conditions in past years. The results will help you decide how hot, cold, wet, or windy it might be!

Date:

Astronomy

Sep. 05, 2013 Rise Set
Actual Time 6:54 AM CDT 8:07 PM CDT
Civil Twilight 6:21 AM CDT 8:40 PM CDT
Nautical Twilight 5:41 AM CDT 9:20 PM CDT
Astronomical Twilight 4:57 AM CDT 10:03 PM CDT
Moon 7:14 AM CDT (9/5) 7:50 PM CDT (9/5)
Length of Visible Light 14h 19m
Length of Day
13h 12m
New Moon, 0% of the Moon is Illuminated
Sep 5
New Moon
Sep 12
First Quarter
Sep 19
Full
Sep 26
Last Quarter
Oct 4
New

Hourly Weather History & Observations

Time (CDT) Temp. Heat Index Dew Point Humidity Pressure Visibility Wind Dir Wind Speed Gust Speed Precip Events Conditions
1:00 AM 54 °F - 45 °F 62% 30.18 in - SSW 5.8 mph - -  
6:00 AM 50.0 °F - 44.6 °F 82% 30.17 in 15.0 mi ESE 3.5 mph - N/A   Partly Cloudy
7:00 AM 54 °F - 46 °F 65% 30.16 in - South 6.9 mph - -  
7:00 AM 50.0 °F - 44.6 °F 82% 30.17 in 15.0 mi SE 6.9 mph - N/A   Scattered Clouds
8:00 AM 51.8 °F - 46.4 °F 82% 30.17 in 15.0 mi SSE 5.8 mph - N/A   Scattered Clouds
9:00 AM 57.2 °F - 48.2 °F 72% 30.17 in 15.0 mi South 5.8 mph - N/A   Mostly Cloudy
10:00 AM 64.4 °F - 50.0 °F 59% 30.15 in 15.0 mi South 11.5 mph - N/A   Mostly Cloudy
11:00 AM 68.0 °F - 53.6 °F 60% 30.13 in 15.0 mi South 13.8 mph - N/A   Partly Cloudy
12:00 PM 73.4 °F - 53.6 °F 50% 30.12 in 15.0 mi South 13.8 mph 19.6 mph N/A   Partly Cloudy
1:00 PM 75.2 °F - 50.0 °F 41% 30.09 in 15.0 mi South 18.4 mph - N/A   Partly Cloudy
2:00 PM 77.0 °F - 55.4 °F 47% 30.06 in 15.0 mi South 11.5 mph 24.2 mph N/A   Partly Cloudy
3:00 PM 80.6 °F 81.1 °F 59.0 °F 48% 30.04 in 15.0 mi SE 13.8 mph - N/A   Clear
4:00 PM 82.4 °F 83.4 °F 62.6 °F 51% 30.01 in 15.0 mi SSE 12.7 mph - N/A   Clear
5:00 PM 86.0 °F 86.6 °F 62.6 °F 45% 29.99 in 15.0 mi South 10.4 mph - N/A   Clear
6:00 PM 84.2 °F 85.6 °F 64.4 °F 51% 29.98 in 15.0 mi South 13.8 mph - N/A   Clear
7:00 PM 80.6 °F 83.2 °F 68.0 °F 65% 29.96 in 15.0 mi South 12.7 mph - N/A   Clear
8:00 PM 73.4 °F - 66.2 °F 78% 29.94 in 15.0 mi SSE 9.2 mph - N/A   Partly Cloudy
9:00 PM 71.6 °F - 64.4 °F 78% 29.95 in 15.0 mi SE 9.2 mph - N/A   Partly Cloudy
10:00 PM 71.6 °F - 66.2 °F 83% 29.94 in 15.0 mi SSE 9.2 mph - N/A   Partly Cloudy
11:00 PM 71.6 °F - 66.2 °F 83% 29.93 in 15.0 mi South 9.2 mph - N/A   Partly Cloudy